DW2488 Weather Reports


time (UTC)temp
C
wind
direction
speed
KPH
gust
KPH
rain 1hr
cm
rain 24hr
cm
rain mn
cm
humidity
%
barometer
mb
20260509150112 8 162 4.8 14.5 0.00 0.00 0.00 84 1026.1
20260509144614 8 157 4.8 14.5 0.00 0.00 0.00 84 1026.1
20260509143111 8 169 4.8 11.3 0.00 0.00 0.00 83 1026.2
20260509141613 8 153 4.8 11.3 0.00 0.00 0.00 83 1026.3
20260509140109 9 163 6.4 12.9 0.00 0.00 0.00 83 1026.2
20260509134614 8 0 4.8 9.7 0.00 0.00 0.00 83 1026.5
20260509133111 8 150 4.8 11.3 0.00 0.00 0.00 83 1026.4
20260509131613 9 150 4.8 12.9 0.00 0.00 0.00 82 1026.4
20260509130111 9 150 4.8 11.3 0.00 0.00 0.00 83 1026.5
20260509124613 9 159 4.8 9.7 0.00 0.00 0.00 82 1026.5
20260509123111 9 173 4.8 9.7 0.00 0.00 0.00 82 1026.6
20260509121609 10 159 4.8 9.7 0.00 0.00 0.00 81 1026.6
20260509120112 10 144 4.8 9.7 0.00 0.00 0.00 82 1026.7
20260509114612 10 156 3.2 8.0 0.00 0.00 0.00 82 1026.7
20260509113111 10 135 1.6 4.8 0.00 0.00 0.00 81 1026.6
20260509111610 10 100 0.0 0.0 0.00 0.00 0.00 81 1026.5
20260509110111 10 98 0.0 0.0 0.00 0.00 0.00 81 1026.5
20260509104611 10 97 0.0 0.0 0.00 0.00 0.00 80 1026.5
20260509103111 10 97 0.0 0.0 0.00 0.00 0.00 79 1026.5
20260509101611 11 96 0.0 0.0 0.00 0.00 0.00 78 1026.2
20260509100120 11 0 0.0 3.2 0.00 0.00 0.00 77 1026.3
20260509094612 11 0 1.6 3.2 0.00 0.00 0.00 77 1025.9
20260509093112 12 0 0.0 3.2 0.00 0.00 0.00 75 1025.8
20260509091611 12 0 1.6 3.2 0.00 0.00 0.00 75 1025.7
20260509090109 12 96 0.0 0.0 0.00 0.00 0.00 73 1025.6
20260509084610 13 95 1.6 3.2 0.00 0.00 0.00 72 1025.4
20260509083110 13 95 0.0 3.2 0.00 0.00 0.00 71 1025.2
20260509081616 14 95 1.6 3.2 0.00 0.00 0.00 70 1025.1
20260509080111 15 95 1.6 3.2 0.00 0.00 0.00 68 1024.8
20260509074610 15 95 0.0 3.2 0.00 0.00 0.00 66 1024.8
20260509073109 16 95 1.6 6.4 0.00 0.00 0.00 65 1024.4
20260509071616 17 102 1.6 6.4 0.00 0.00 0.00 63 1024.4
20260509070045 17 0 1.6 9.7 0.00 0.00 0.00 61 1024.1
20260509064536 18 124 6.4 16.1 0.00 0.00 0.00 60 1023.8
20260509063034 18 126 8.0 16.1 0.00 0.00 0.00 58 1023.7
20260509061537 19 101 8.0 16.1 0.00 0.00 0.00 57 1023.5
20260509060035 20 107 8.0 20.9 0.00 0.00 0.00 55 1023.5
20260509054531 21 0 9.7 17.7 0.00 0.00 0.00 52 1023.2
20260509053029 22 63 0.0 4.8 0.00 0.00 0.00 43 1023.1
20260509051536 22 287 1.6 9.7 0.00 0.00 0.00 44 1022.9
20260509050017 22 213 1.6 6.4 0.00 0.00 0.00 45 1023.0
20260509044519 21 131 3.2 6.4 0.00 0.00 0.00 46 1023.0
20260509043019 21 106 1.6 4.8 0.00 0.00 0.00 49 1023.0
20260509041458 21 0 1.6 6.4 0.00 0.00 0.00 47 1022.9
20260509035933 21 0 3.2 9.7 0.00 0.00 0.00 47 1022.9
20260509034434 21 0 3.2 8.0 0.00 0.00 0.00 47 1023.1
20260509032927 21 0 3.2 14.5 0.00 0.00 0.00 46 1023.1
20260509031422 21 0 3.2 12.9 0.00 0.00 0.00 46 1023.3
20260509025923 21 193 3.2 11.3 0.00 0.00 0.00 47 1023.3
20260509024419 21 250 3.2 9.7 0.00 0.00 0.00 49 1023.5
20260509022919 21 215 4.8 9.7 0.00 0.00 0.00 46 1023.8
20260509021412 20 207 6.4 12.9 0.00 0.00 0.00 47 1024.0
20260509015910 20 115 3.2 14.5 0.00 0.00 0.00 47 1024.3
20260509014411 20 234 3.2 11.3 0.00 0.00 0.00 50 1024.4
20260509012909 20 172 6.4 12.9 0.00 0.00 0.00 51 1024.4
20260509011418 20 126 4.8 12.9 0.00 0.00 0.00 50 1024.8
20260509005917 20 219 4.8 9.7 0.00 0.00 0.00 52 1025.1
20260509004411 19 200 3.2 9.7 0.00 0.00 0.00 54 1025.2
20260509002910 18 146 3.2 14.5 0.00 0.00 0.00 55 1025.1
20260509001410 18 178 4.8 12.9 0.00 0.00 0.00 60 1025.1
20260508235917 17 196 6.4 16.1 0.00 0.00 0.00 61 1025.2
20260508234409 16 168 6.4 14.5 0.00 0.00 0.00 61 1025.2
20260508232915 16 155 6.4 11.3 0.00 0.00 0.00 65 1025.3
20260508231424 14 175 4.8 9.7 0.00 0.00 0.00 69 1025.3
20260508225917 12 0 4.8 9.7 0.00 0.00 0.00 74 1025.4
20260508224411 11 169 4.8 9.7 0.00 0.00 0.00 77 1025.3
20260508222917 11 0 3.2 14.5 0.00 0.00 0.00 79 1025.2
20260508221411 10 154 3.2 8.0 0.00 0.00 0.00 81 1025.0
20260508215911 9 0 3.2 9.7 0.00 0.00 0.00 82 1024.8
20260508214411 8 0 3.2 4.8 0.00 0.00 0.00 83 1024.8
20260508212911 8 0 3.2 6.4 0.00 0.00 0.00 83 1024.5
20260508211416 8 0 3.2 4.8 0.00 0.00 0.00 83 1024.5
20260508205917 8 0 1.6 6.4 0.00 0.00 0.00 81 1024.3
20260508204411 8 0 1.6 4.8 0.00 0.00 0.00 81 1024.0
20260508202916 8 0 3.2 6.4 0.00 0.00 0.00 81 1023.8
20260508201416 8 0 3.2 6.4 0.00 0.00 0.00 81 1023.5
20260508195901 8 0 1.6 4.8 0.00 0.00 0.00 80 1023.3
20260508194354 8 0 4.8 8.0 0.00 0.00 0.00 80 1023.2
20260508192842 9 0 3.2 6.4 0.00 0.00 0.00 80 1022.8
20260508191344 9 0 1.6 6.4 0.00 0.00 0.00 79 1022.8
20260508185841 9 0 4.8 9.7 0.00 0.00 0.00 79 1022.5
20260508184333 10 160 3.2 9.7 0.00 0.00 0.00 78 1022.5
20260508182825 10 154 3.2 8.0 0.00 0.00 0.00 78 1022.3
20260508181319 10 157 1.6 8.0 0.00 0.00 0.00 78 1022.2
20260508175814 10 154 3.2 4.8 0.00 0.00 0.00 78 1022.3
20260508174312 10 153 3.2 8.0 0.00 0.00 0.00 78 1022.2
20260508172813 10 0 3.2 8.0 0.00 0.00 0.00 79 1022.2
20260508171310 9 0 3.2 6.4 0.00 0.00 0.00 79 1022.1
20260508165809 8 0 0.0 3.2 0.00 0.00 0.00 79 1022.0
20260508164316 8 0 1.6 4.8 0.00 0.00 0.00 77 1022.1
20260508162811 9 0 1.6 6.4 0.00 0.00 0.00 76 1022.4
20260508161316 10 139 1.6 4.8 0.00 0.00 0.00 76 1022.1
20260508155741 10 139 3.2 6.4 0.00 0.00 0.00 76 1022.2
20260508154214 10 138 3.2 6.4 0.00 0.00 0.00 76 1022.0
20260508152715 10 126 4.8 8.0 0.00 0.00 0.00 77 1022.2
20260508151216 9 132 4.8 6.4 0.00 0.00 0.00 79 1022.2